Home > Weather > Freiberg > Past weeks

Flag for Germany Weather for the Past 2 Weeks in Freiberg, Saxony, Germany

Now
45 °F

Clear.


Feels Like: 38 °F
Forecast: 35 / 41 °F
Wind: 14 mph from Southwest

Location: Dresden-Klotzsche

Current Time: Feb 9, 2016 at 7:38:02 AM

Latest Report: Feb 9, 2016 at 6:50 AM


Visibility: 10 mi

Pressure: 29.53 "Hg

Humidity: 61%

Dew point: 32 °F

Location of FreibergLocation

Historic Weather in Freiberg — Graph

°F

Freiberg Temperature Yesterday

Maximum temperature yesterday: 52 °F (at 2:20 PM)
Minimum temperature yesterday: 41 °F (at 4:20 AM)
Average temperature yesterday: 46 °F

High & Low Weather Summary for the Past Weeks

 TemperatureHumidityPressure
High55 °F (Jan 27, 1:50 PM)100% (Jan 25, 6:20 AM)30.30 "Hg (Jan 25, 6:20 AM)
Low32 °F (Jan 29, 2:50 AM)46% (Jan 29, 11:50 AM)29.42 "Hg (Feb 8, 3:50 PM)
Average44 °F75%29.98 "Hg
* Reported Jan 25 6:20 AM — Feb 9 6:20 AM, Freiberg, Weather by CustomWeather, © 2016

Note: Actual official high and low records may vary slightly from our data, if they occured in-between our weather recording intervals... More about our weather records

Advertising

Freiberg Weather History for the Previous 24 Hours

 ConditionsComfort  
Time TempWeatherWind HumidityBarometerVisibility
6:20 AM
Tue, Feb 9
45 °FClear.16 mph61%29.53 "Hg10 mi
5:50 AM45 °FClear.15 mph61%29.53 "Hg10 mi
5:20 AM45 °FClear.14 mph61%29.53 "Hg10 mi
4:50 AM43 °FPassing clouds.16 mph66%29.53 "HgN/A
4:20 AM43 °FPassing clouds.17 mph66%29.53 "HgN/A
3:50 AM45 °FClear.20 mph57%29.53 "Hg10 mi
3:20 AM45 °FClear.20 mph61%29.53 "Hg10 mi
2:50 AM45 °FClear.20 mph61%29.53 "Hg10 mi
2:20 AM45 °FClear.18 mph61%29.53 "Hg10 mi
1:50 AM45 °FPassing clouds.18 mph61%29.53 "HgN/A
1:20 AM43 °FClear.16 mph66%29.50 "Hg10 mi
12:50 AM43 °FClear.17 mph66%29.50 "Hg10 mi
12:20 AM43 °FClear.18 mph66%29.50 "Hg10 mi
11:20 PM
Mon, Feb 8
43 °FClear.18 mph66%29.50 "Hg10 mi
10:50 PM45 °FClear.18 mph61%29.50 "Hg10 mi
10:20 PM45 °FClear.18 mph66%29.50 "Hg10 mi
9:50 PM45 °FClear.16 mph71%29.50 "Hg10 mi
9:20 PM45 °FClear.14 mph76%29.47 "Hg10 mi
8:50 PM45 °FClear.16 mph71%29.47 "Hg10 mi
8:20 PM46 °FClear.20 mph71%29.47 "Hg10 mi
7:50 PM48 °FClear.16 mph66%29.45 "Hg10 mi
7:20 PM48 °FClear.18 mph66%29.47 "Hg10 mi
6:50 PM48 °FClear.20 mph66%29.45 "Hg10 mi
6:20 PM48 °FClear.26 mph66%29.45 "Hg10 mi
5:50 PM50 °FLight rain. Passing clouds.25 mph62%29.45 "HgN/A
5:20 PM52 °FPartly cloudy.22 mph58%29.42 "HgN/A
4:50 PM52 °FBroken clouds.14 mph58%29.42 "HgN/A
4:20 PM50 °FBroken clouds.12 mph67%29.42 "HgN/A
3:50 PM50 °FPartly sunny.16 mph71%29.42 "HgN/A
3:20 PM52 °FLight rain. Partly sunny.17 mph58%29.45 "HgN/A
2:50 PM52 °FPartly sunny.15 mph54%29.45 "HgN/A
2:20 PM52 °FBroken clouds.20 mph54%29.45 "HgN/A
1:50 PM50 °FPartly sunny.21 mph58%29.45 "HgN/A
1:20 PM48 °FPartly sunny.20 mph58%29.47 "HgN/A
12:50 PM46 °FPartly sunny.21 mph62%29.50 "HgN/A
12:20 PM46 °FPartly sunny.20 mph62%29.50 "HgN/A
11:50 AM46 °FPartly sunny.20 mph62%29.53 "HgN/A
11:20 AM46 °FSunny.20 mph62%29.53 "Hg10 mi
10:50 AM45 °FSunny.20 mph66%29.56 "Hg10 mi
10:20 AM45 °FSunny.22 mph66%29.56 "Hg10 mi
9:50 AM45 °FSunny.25 mph66%29.59 "Hg10 mi
9:20 AM43 °FSunny.23 mph71%29.59 "Hg10 mi
8:50 AM43 °FSunny.21 mph71%29.62 "Hg10 mi
8:20 AM43 °FSunny.17 mph66%29.62 "Hg10 mi
7:50 AM43 °FSunny.17 mph66%29.62 "Hg10 mi
7:20 AM43 °FClear.20 mph66%29.65 "Hg10 mi
Weather by CustomWeather, © 2016

See weather overviewHow to use our weather pages